Weather History for Taos, NM

Change the Weather History Date:

Wednesday, January 2, 2013

  Actual Average Record
Temperature  
Mean Temperature 5 °F -  
Max Temperature 24 °F 40 °F 51 °F (2006)
Min Temperature -14 °F 9 °F -14 °F (2011)
Degree Days  
Heating Degree Days 60    
Moisture  
Dew Point -6 °F    
Average Humidity 73    
Maximum Humidity 100    
Minimum Humidity 43    
Precipitation  
Precipitation 0.00 in - - ()
Sea Level Pressure  
Sea Level Pressure 30.16 in    
Wind  
Wind Speed 6 mph (North)    
Max Wind Speed 10 mph    
Max Gust Speed -    
Visibility 10 miles    
Events      
Averages and records for this station are not official NWS values.
T = Trace of Precipitation, MM = Missing Value Source: NWS Daily Summary

Daily Weather History Graph

Daily Weather History Graph

Search for Another Location

Airport:

Trip Planner

Search our weather history database for the weather conditions in past years. The results will help you decide how hot, cold, wet, or windy it might be!

Date:

Astronomy

Jan. 02, 2013 Rise Set
Actual Time 7:14 AM MST 4:59 PM MST
Civil Twilight 6:46 AM MST 5:27 PM MST
Nautical Twilight 6:13 AM MST 6:00 PM MST
Astronomical Twilight 5:42 AM MST 6:31 PM MST
Moon 10:24 PM MST (1/2) 10:07 AM MST (1/2)
Length of Visible Light 10h 41m
Length of Day
9h 44m
Waning Gibbous, 74% of the Moon is Illuminated
Jan 2
Waning Gibbous
Jan 4
Last Quarter
Jan 11
New
Jan 18
First Quarter
Jan 26
Full

Hourly Weather History & Observations

Time (MST) Temp. Windchill Dew Point Humidity Pressure Visibility Wind Dir Wind Speed Gust Speed Precip Events Conditions
12:35 AM -9.4 °F -24.3 °F -14.8 °F 77% 30.18 in 10.0 mi North 6.9 mph - N/A   Clear
1:15 AM -7.6 °F -23.4 °F -11.2 °F 84% 30.17 in 10.0 mi North 8.1 mph - N/A   Clear
1:35 AM -7.6 °F -22.1 °F -11.2 °F 84% 30.17 in 10.0 mi North 6.9 mph - N/A   Clear
1:55 AM -7.6 °F -22.1 °F -14.8 °F 71% 30.18 in 10.0 mi North 6.9 mph - N/A   Clear
2:15 AM -11.2 °F -27.8 °F -13.0 °F 92% 30.17 in 10.0 mi North 8.1 mph - N/A   Clear
2:35 AM -9.4 °F -25.6 °F -13.0 °F 84% 30.18 in 10.0 mi North 8.1 mph - N/A   Clear
2:55 AM -9.4 °F -24.3 °F -11.2 °F 92% 30.17 in 10.0 mi North 6.9 mph - N/A   Clear
3:15 AM -9.4 °F -25.6 °F -14.8 °F 77% 30.17 in 10.0 mi North 8.1 mph - N/A   Clear
3:35 AM -9.4 °F -20.9 °F -11.2 °F 92% 30.17 in 10.0 mi North 4.6 mph - N/A   Clear
3:55 AM -9.4 °F -22.7 °F -14.8 °F 77% 30.16 in 10.0 mi ENE 5.8 mph - N/A   Clear
4:15 AM -7.6 °F -22.1 °F -9.4 °F 92% 30.17 in 10.0 mi NNE 6.9 mph - N/A   Clear
4:35 AM -9.4 °F -20.9 °F -18.4 °F 65% 30.17 in 10.0 mi NNE 4.6 mph - N/A   Clear
4:55 AM -9.4 °F -20.9 °F -9.4 °F 100% 30.17 in 10.0 mi North 4.6 mph - N/A   Clear
5:55 AM -13.0 °F - -18.4 °F 77% 30.17 in 10.0 mi Calm Calm - N/A   Partly Cloudy
6:15 AM -9.4 °F - -9.4 °F 100% 30.17 in 10.0 mi Calm Calm - N/A   Clear
6:35 AM -9.4 °F -24.3 °F -18.4 °F 65% 30.18 in 10.0 mi North 6.9 mph - N/A   Clear
7:15 AM -14.8 °F -30.8 °F -18.4 °F 84% 30.18 in 10.0 mi NNE 6.9 mph - N/A   Clear
7:55 AM -11.2 °F - -16.6 °F 77% 30.18 in 10.0 mi Calm Calm - N/A   Clear
8:15 AM -5.8 °F - -9.4 °F 84% 30.18 in 10.0 mi Calm Calm - N/A   Clear
9:15 AM 5.0 °F -5.6 °F 1.4 °F 85% 30.19 in 10.0 mi North 5.8 mph - N/A   Clear
9:35 AM 6.8 °F -3.5 °F 3.2 °F 85% 30.20 in 10.0 mi North 5.8 mph - N/A   Clear
9:55 AM 10.4 °F -2.4 °F 6.8 °F 85% 30.20 in 10.0 mi North 9.2 mph - N/A   Clear
10:15 AM 12.2 °F -0.2 °F 6.8 °F 79% 30.20 in 10.0 mi North 9.2 mph - N/A   Clear
11:55 AM 19.4 °F 11.5 °F 3.2 °F 49% 30.15 in 10.0 mi North 5.8 mph - N/A   Clear
1:35 PM 23.0 °F - 6.8 °F 50% 30.10 in 10.0 mi Calm Calm - N/A   Clear
1:55 PM 24.8 °F - 6.8 °F 46% 30.10 in 10.0 mi Calm Calm - N/A   Clear
2:15 PM 24.8 °F 17.9 °F 5.0 °F 43% 30.10 in 10.0 mi NNE 5.8 mph - N/A   Clear
2:35 PM 24.8 °F 17.9 °F 6.8 °F 46% 30.09 in 10.0 mi North 5.8 mph - N/A   Clear
2:55 PM 24.8 °F 17.9 °F 6.8 °F 46% 30.09 in 10.0 mi North 5.8 mph - N/A   Clear
3:35 PM 24.8 °F 17.9 °F 6.8 °F 46% 30.10 in 10.0 mi NNW 5.8 mph - N/A   Clear
3:55 PM 23.0 °F 14.7 °F 5.0 °F 46% 30.10 in 10.0 mi NNW 6.9 mph - N/A   Clear
4:55 PM 15.8 °F 6.1 °F 1.4 °F 53% 30.11 in 10.0 mi North 6.9 mph - N/A   Clear
5:35 PM 8.6 °F -3.7 °F -0.4 °F 67% 30.11 in 10.0 mi North 8.1 mph - N/A   Clear
5:55 PM 8.6 °F -5.5 °F -0.4 °F 67% 30.12 in 10.0 mi North 10.4 mph - N/A   Clear
6:15 PM 10.4 °F -1.5 °F -0.4 °F 62% 30.13 in 10.0 mi North 8.1 mph - N/A   Clear
6:35 PM 6.8 °F -6.9 °F -2.2 °F 67% 30.14 in 10.0 mi NNE 9.2 mph - N/A   Mostly Cloudy
6:55 PM 6.8 °F -0.1 °F -0.4 °F 72% 30.15 in 10.0 mi NE 3.5 mph - N/A   Overcast
7:15 PM 6.8 °F -3.5 °F -2.2 °F 67% 30.15 in 10.0 mi ENE 5.8 mph - N/A   Mostly Cloudy
7:35 PM 3.2 °F - -7.6 °F 61% 30.16 in 10.0 mi Calm Calm - N/A   Partly Cloudy
7:55 PM 1.4 °F -8.3 °F -0.4 °F 92% 30.16 in 10.0 mi NE 4.6 mph - N/A   Clear
8:15 PM -0.4 °F -15.7 °F -9.4 °F 66% 30.16 in 10.0 mi North 9.2 mph - N/A   Clear
8:35 PM -0.4 °F -14.7 °F -7.6 °F 72% 30.16 in 10.0 mi North 8.1 mph - N/A   Clear
8:55 PM -0.4 °F -12.0 °F -5.8 °F 78% 30.17 in 10.0 mi North 5.8 mph - N/A   Clear
9:15 PM -0.4 °F -10.4 °F -9.4 °F 66% 30.17 in 10.0 mi North 4.6 mph - N/A   Clear
9:35 PM -0.4 °F -10.4 °F -4.0 °F 85% 30.18 in 10.0 mi North 4.6 mph - N/A   Clear
9:55 PM -2.2 °F -12.5 °F -9.4 °F 71% 30.18 in 10.0 mi North 4.6 mph - N/A   Clear
10:15 PM -0.4 °F -8.3 °F -2.2 °F 92% 30.19 in 10.0 mi North 3.5 mph - N/A   Clear
10:35 PM -0.4 °F -12.0 °F -5.8 °F 78% 30.19 in 10.0 mi North 5.8 mph - N/A   Clear
10:55 PM -2.2 °F -15.6 °F -9.4 °F 71% 30.20 in 10.0 mi North 6.9 mph - N/A   Clear
11:15 PM -5.8 °F -16.7 °F -11.2 °F 77% 30.20 in 10.0 mi NNE 4.6 mph - N/A   Clear
11:35 PM -2.2 °F -12.5 °F -4.0 °F 92% 30.21 in 10.0 mi North 4.6 mph - N/A   Clear
11:55 PM -2.2 °F - -11.2 °F 66% 30.21 in 10.0 mi Calm Calm - N/A   Clear